Theta_e
301 303 303 303 304 307 308 311 312 315 317 318 320 321 319 319 312 317 323 326 329 329 327 332 335 335 334 333 333 333 332 331 329 326 326 330 327 328 329 329 329 328 328 328
304 304 303 305 305 308 310 311 313 312 316 317 319 320 319 315 310 315 319 325 325 327 328 328 333 333 332 333 333 331 332 332 330 329 328 327 325 328 329 329 329 328 328 329
306 305 305 308 308 308 310 311 313 316 318 318 319 323 321 317 311 316 317 318 319 320 322 317 325 330 333 332 332 332 331 331 330 329 329 330 326 326 329 329 328 329 329 330
307 307 307 309 309 310 310 310 310 313 316 321 318 324 322 318 314 310 309 315 316 316 320 312 324 324 329 331 331 331 331 330 330 326 329 329 329 328 329 329 329 330 330 329
307 309 310 311 310 310 313 312 312 313 314 316 316 318 321 317 312 311 305 305 310 316 317 317 322 324 323 327 328 329 330 329 330 331 329 328 329 328 328 330 328 329 329 328
306 308 310 309 311 311 311 313 313 314 315 317 317 313 321 319 316 307 303 302 304 308 313 313 313 320 323 325 326 327 329 330 329 329 328 328 328 328 328 330 330 329 328 328
308 309 309 309 312 312 311 312 314 314 316 317 315 309 311 309 312 306 303 301 301 303 306 313 309 311 315 323 323 323 325 327 328 327 328 329 328 328 328 329 329 328 328 328
306 310 307 307 312 311 312 312 313 315 315 312 310 312 308 304 307 303 301 299 299 300 302 308 309 310 311 315 320 320 323 325 326 327 327 327 328 327 324 324 325 326 328 326
306 308 306 308 310 310 311 310 309 308 305 311 309 307 306 303 304 303 301 299 298 298 298 301 308 309 310 313 317 318 320 322 323 323 325 325 325 325 324 323 324 326 325 328
306 310 307 308 308 308 307 307 309 310 308 313 309 310 310 305 304 304 303 301 298 298 299 300 302 303 304 306 308 309 312 316 319 320 322 323 323 324 323 322 323 324 326 326
306 308 309 307 309 308 308 308 306 307 307 311 311 310 307 306 303 302 303 302 302 301 299 300 303 305 305 306 303 303 304 305 309 310 316 320 321 322 321 323 324 323 323 323
304 307 308 308 308 306 308 308 307 303 303 305 310 308 304 302 301 300 299 299 300 301 302 303 304 304 303 305 309 311 307 305 304 304 305 306 307 308 308 313 313 318 318 318
303 301 304 309 307 308 308 309 308 307 304 305 307 309 303 301 300 299 297 296 295 297 299 301 302 303 305 307 308 310 311 311 312 312 313 311 307 306 307 307 307 308 311 313
302 303 298 305 308 309 308 308 306 302 300 306 307 307 304 302 300 299 298 297 296 296 296 297 298 302 304 305 308 309 310 309 310 311 313 312 311 309 308 306 308 308 310 310
298 299 302 304 306 306 306 306 306 304 299 301 305 303 302 302 300 299 299 297 297 297 297 298 299 300 301 302 303 304 304 304 305 305 305 304 305 306 306 307 308 308 309 309
298 294 296 302 304 305 303 300 304 303 302 301 301 301 301 301 302 301 300 299 299 298 298 299 299 300 301 301 302 302 303 304 304 303 303 304 304 304 304 305 305 306 307 308
296 292 292 300 296 296 301 298 299 304 302 302 302 302 300 298 300 301 301 300 300 299 299 299 300 300 300 300 301 302 302 302 303 303 303 303 303 303 303 303 303 304 304 303
293 290 289 293 289 296 297 294 294 301 300 301 300 298 299 299 298 300 300 301 300 299 299 299 299 300 300 300 300 301 301 302 301 301 301 301 301 301 300 299 300 300 299 298
294 291 291 296 285 291 295 294 296 298 302 299 296 297 298 298 299 297 298 299 300 300 300 299 299 299 299 299 299 298 299 299 300 300 299 299 298 297 297 296 296 296 297 297
292 292 292 286 290 291 293 293 294 294 298 297 296 296 298 299 299 297 297 298 299 300 299 299 299 299 299 299 298 298 297 297 297 297 297 297 296 296 296 296 296 297 296 296
284 284 288 286 284 288 292 293 293 292 296 296 296 297 299 295 297 296 297 298 298 299 299 299 298 298 298 298 298 298 297 297 297 296 296 296 296 296 296 296 296 296 294 292
288 285 282 280 283 289 291 294 296 294 293 294 296 298 296 294 294 294 294 294 294 295 296 298 298 298 298 298 297 297 297 297 297 296 296 296 296 296 296 296 295 294 292 291
289 288 288 289 290 292 292 294 293 294 294 294 294 294 294 293 293 293 293 293 293 292 293 293 295 297 299 298 298 298 297 297 297 297 296 296 296 296 295 295 294 293 292 291
286 287 286 285 287 290 291 293 294 294 294 294 294 293 293 293 293 293 293 293 293 293 293 293 292 293 294 297 298 299 299 299 299 298 297 296 296 295 295 294 293 292 292 291
288 287 284 285 288 291 292 291 291 292 294 294 294 293 293 293 293 293 293 293 293 293 293 293 293 292 293 293 294 297 298 298 298 298 298 297 296 295 295 294 294 293 292 291
289 287 288 288 292 293 293 293 293 292 292 293 293 293 293 293 293 293 293 293 293 292 292 292 292 292 292 292 292 292 294 296 298 298 298 297 297 297 297 297 297 297 297 296
Wind_Speed
11 8 12 21 23 11 18 16 15 12 11 20 14 9 11 17 6 4 11 9 21 21 10 19 31 29 28 25 27 28 39 38 30 24 26 27 23 22 22 18 16 14 14 14
6 16 17 12 15 15 17 10 10 3 12 22 19 11 6 9 10 8 10 15 14 19 17 9 33 32 27 29 26 23 28 32 30 26 22 25 25 22 21 18 17 16 16 15
11 10 16 14 16 16 11 12 6 5 10 6 21 9 8 6 11 19 19 16 15 14 13 13 23 33 35 32 30 30 27 25 27 27 23 22 23 22 21 21 21 20 18 16
3 5 19 11 14 8 14 16 6 8 6 9 5 6 8 8 6 8 15 14 12 12 13 8 17 18 25 28 25 30 27 21 21 28 29 24 22 22 22 23 22 22 21 17
1 13 13 7 17 18 6 15 14 11 3 4 3 6 6 12 8 10 9 13 13 11 12 12 14 10 15 23 23 22 26 22 21 24 29 29 27 24 20 18 17 18 17 16
2 2 8 9 13 15 6 9 9 7 4 1 6 4 6 9 7 8 10 13 11 12 13 10 12 18 10 18 19 17 19 19 20 19 19 18 19 23 25 18 16 15 17 19
3 1 3 13 5 5 7 1 3 4 2 3 3 8 3 5 6 11 13 16 15 11 9 10 5 8 16 15 12 16 15 15 14 16 15 18 18 18 22 20 17 15 18 17
5 3 4 0 2 6 2 2 2 4 4 1 2 4 3 5 9 17 17 18 18 15 11 12 7 6 4 12 15 11 12 10 12 11 11 15 17 14 10 12 10 10 15 15
4 4 2 4 5 2 2 2 3 6 2 4 3 4 4 6 7 10 12 14 16 15 14 14 14 11 9 3 10 11 12 15 17 14 12 11 12 14 11 11 9 10 13 14
3 2 5 5 3 5 5 4 2 4 3 4 3 3 3 4 6 7 9 13 14 13 13 16 17 16 13 10 8 5 10 11 14 15 14 12 9 6 7 6 6 6 11 14
5 3 5 1 6 5 5 4 4 5 2 3 4 2 5 3 7 8 10 11 14 14 12 13 15 15 15 12 13 11 6 4 4 7 8 8 7 6 5 7 10 8 6 7
7 4 4 6 4 5 4 6 4 4 4 3 3 3 4 6 9 14 15 12 10 11 12 10 11 10 10 10 10 8 8 7 5 5 2 3 3 3 4 6 8 9 8 9
6 4 3 3 5 7 7 5 3 3 2 3 4 4 4 9 11 14 18 14 12 11 10 10 9 8 6 6 6 5 6 4 3 6 8 8 8 7 5 7 9 9 11 10
6 5 3 3 2 2 4 6 7 5 4 1 5 9 5 5 7 10 13 14 12 11 11 9 8 7 4 2 3 3 7 10 9 9 10 11 11 13 15 14 8 6 4 5
4 5 6 8 9 9 7 6 10 6 1 5 5 7 5 5 6 11 13 15 15 12 10 10 10 9 9 7 7 8 7 5 5 7 8 5 3 4 5 5 4 4 6 7
4 1 2 9 9 11 12 12 8 9 11 9 11 7 6 14 17 12 11 11 12 11 9 9 9 9 9 8 7 7 7 7 7 7 7 7 7 7 7 7 6 6 6 6
3 3 3 3 5 6 8 8 7 4 6 6 4 5 6 6 10 11 12 10 10 9 7 8 8 8 9 8 7 7 7 7 8 8 8 9 9 9 8 8 8 7 6 7
3 3 2 2 3 5 4 2 4 5 6 7 10 5 8 12 12 11 9 10 10 9 9 8 7 7 7 7 6 6 6 6 7 8 8 9 9 9 8 8 8 8 8 8
5 4 3 3 2 2 3 4 3 4 4 3 6 6 13 17 16 11 7 8 9 9 9 9 8 7 8 7 6 6 5 5 5 6 7 7 8 8 9 8 8 8 9 9
5 6 4 4 5 3 3 3 4 3 2 5 4 6 10 10 3 2 5 8 9 9 9 8 8 7 7 7 7 7 5 5 5 5 5 5 6 6 7 8 8 8 8 9
5 4 4 3 3 5 4 5 5 6 3 2 4 5 7 3 4 12 8 9 9 9 8 7 7 7 6 5 5 5 5 4 4 4 4 4 5 5 5 6 7 8 8 8
2 3 1 2 5 3 1 3 3 2 2 3 7 7 9 15 14 12 10 10 9 9 8 6 5 4 3 3 4 4 4 3 3 3 4 4 5 5 6 6 6 6 7 7
3 4 3 4 4 2 3 3 5 2 6 6 9 12 13 12 11 10 9 9 8 8 7 6 6 4 2 2 0 1 2 2 2 3 5 5 6 7 7 7 7 7 7 7
3 2 0 4 4 5 6 7 3 3 6 7 7 10 9 10 10 7 5 4 4 3 3 3 2 2 1 1 3 5 5 2 3 4 7 8 8 8 8 8 8 8 9 9
2 4 3 4 7 6 7 10 7 7 7 9 9 10 8 9 6 4 3 1 1 3 4 4 3 3 4 5 6 8 10 10 10 6 10 9 9 9 8 8 8 8 10 12
8 5 3 4 3 2 5 7 5 5 9 11 10 12 12 10 8 5 3 5 5 5 5 5 4 4 4 4 5 7 10 13 14 12 12 14 13 12 10 10 10 11 13 15
Wind_Direction
165 198 205 209 204 231 187 238 210 248 223 199 180 140 154 163 116 149 185 140 158 146 181 175 196 191 190 195 193 198 200 198 195 195 186 188 183 197 207 205 211 208 207 202
163 220 215 210 198 226 240 255 212 286 217 185 172 171 138 118 104 75 124 131 139 132 164 211 160 176 180 180 186 197 197 191 186 190 188 193 195 199 213 213 214 219 214 210
213 237 196 206 209 198 228 227 203 188 140 170 156 180 146 95 107 97 95 114 129 133 155 167 146 152 167 178 184 190 191 193 183 191 193 195 199 209 208 214 223 222 225 219
149 252 184 201 199 195 219 208 217 175 186 153 191 149 147 151 135 117 114 116 121 126 141 125 137 143 153 162 170 185 187 191 186 192 200 203 205 209 214 221 227 231 226 219
167 205 179 182 205 192 252 184 204 172 89 104 141 130 130 140 147 150 124 126 131 145 151 131 127 141 130 152 166 167 175 180 191 198 200 209 211 216 217 226 227 223 223 218
297 341 162 164 164 173 136 162 170 106 123 150 157 130 152 172 161 126 109 120 121 132 157 156 143 146 145 141 156 154 167 176 188 203 209 212 212 217 216 217 213 203 209 221
48 69 346 124 133 155 145 196 92 67 46 57 143 59 57 34 108 140 133 129 121 120 134 152 174 150 149 151 134 142 156 169 180 198 205 201 205 206 210 224 227 220 206 206
23 120 356 25 176 128 146 84 81 111 133 95 281 95 87 80 66 109 105 115 118 110 104 116 120 118 142 147 168 156 149 162 173 182 194 200 208 208 225 244 245 234 231 228
352 74 351 33 104 109 134 53 224 105 45 81 95 60 75 108 87 117 125 119 111 113 117 105 103 91 78 130 174 180 171 191 189 193 200 204 222 227 247 258 262 254 261 250
298 73 7 344 285 14 118 148 115 30 88 90 67 78 99 163 145 146 163 130 130 133 125 116 110 101 85 85 82 104 145 165 178 176 176 170 176 191 221 222 229 201 205 218
338 8 8 280 33 10 9 35 45 108 88 129 123 60 349 79 157 155 157 151 164 158 151 132 122 120 115 99 91 77 60 73 126 139 135 154 162 223 245 260 243 245 255 244
344 43 56 40 321 255 9 22 49 94 308 37 76 82 30 75 110 114 107 126 169 179 178 169 151 144 135 134 120 103 90 77 66 58 105 152 164 221 247 230 252 251 248 245
321 14 45 25 4 360 42 349 10 103 73 18 103 120 85 88 91 109 121 130 138 142 144 148 158 161 175 186 187 208 231 253 314 343 353 359 349 333 306 301 276 244 233 236
87 35 100 102 15 337 54 13 356 80 70 57 67 121 97 91 109 120 128 127 130 126 124 126 129 139 154 195 194 204 251 259 262 273 268 253 246 247 245 243 239 243 224 220
79 63 38 36 53 78 63 14 38 56 175 97 148 102 110 128 136 138 132 128 122 117 119 122 122 128 140 156 176 204 219 216 229 233 232 222 212 180 170 164 149 172 191 200
9 135 76 35 40 69 68 21 27 44 65 76 97 73 117 111 115 119 125 119 114 116 118 114 118 117 120 128 137 146 149 146 148 151 147 140 137 136 139 139 148 169 174 161
51 97 53 41 348 359 38 357 357 39 51 128 111 151 125 82 84 87 105 114 120 122 121 123 122 128 126 135 141 141 142 141 138 137 136 133 138 144 155 158 160 153 163 162
83 72 64 165 22 47 260 311 312 65 53 67 93 92 116 117 102 93 95 108 116 127 130 129 128 130 129 134 137 138 136 139 148 150 152 149 150 152 159 161 160 162 158 154
34 102 51 97 95 244 25 350 15 26 23 48 114 109 120 123 100 68 99 112 113 116 121 125 126 131 138 138 133 134 145 153 160 158 156 157 152 157 158 154 154 153 150 155
32 51 104 39 91 121 250 286 324 303 36 340 133 143 147 162 84 203 112 109 112 115 114 114 117 123 126 133 139 144 153 153 166 166 164 168 168 169 169 165 167 167 165 172
350 360 91 38 98 299 262 302 324 72 219 350 161 149 148 101 115 136 122 104 98 100 103 107 110 115 120 128 137 142 150 158 163 172 175 178 180 186 191 192 188 188 187 183
136 96 296 51 65 352 268 343 74 215 102 116 122 135 125 116 117 115 106 92 83 78 75 72 73 87 107 131 150 150 151 156 178 202 208 211 211 217 218 218 222 218 208 200
12 170 187 155 208 250 166 90 97 95 139 128 129 132 133 127 120 113 103 90 78 69 63 56 50 44 35 35 62 204 204 187 208 240 243 246 253 255 250 241 232 228 229 229
300 165 120 53 290 246 219 209 182 148 163 159 157 152 145 139 129 130 126 115 105 79 41 26 17 359 332 254 230 227 227 216 328 298 271 260 257 252 248 246 245 247 241 242
196 135 186 271 281 273 257 232 222 201 187 186 185 184 177 167 139 132 126 95 305 282 284 283 277 270 266 274 266 250 245 244 238 257 285 266 256 244 241 246 256 256 253 255
189 188 156 223 216 129 135 118 132 197 220 216 212 211 209 206 216 228 283 280 296 299 309 300 260 258 274 287 291 286 272 265 262 250 247 268 267 256 248 250 257 266 270 265